www.pogodaiklimat.ru

Погода и климат >> Архив погоды >> Аргентина >> Пресиденсиа-Роке-Саэнс-Пенья


ПОГОДА в Пресиденсиа-Роке-Саэнс-Пеньи

  • Прогноз погоды в Пресиденсиа-Роке-Саэнс-Пеньи
  • Монитор погоды в Пресиденсиа-Роке-Саэнс-Пеньи

АРХИВ ПОГОДЫ в Пресиденсиа-Роке-Саэнс-Пеньи

Время (UTC), дата Ветер
(напр.,м/с)
 
Видим.   Явления Облачность Т
(С)
Тd
(С)
f
(%)
Тe
(С)
Тes
(С)
Комфортность P
(гПа)
Po
(гПа)
Тmin
(С)
Tmax
(С)
R
(мм)
R24
(мм)
S
(см)
12 11.08 В 3 8000 м дымка 1/0
[Cs]
+8.9 +8.1 95 +6 +8 1017.9 1006.6 +6.3 +9.9
15 11.08 В 4 20 км 1/1 450 м
[Cu hum]
+17.7 +11.5 67 +17 +24 1017.1 1006.0
18 11.08 В 4 20 км 5/0
[Ac trans Cs]
+20.9 +12.3 58 +23 +28 комфорт 1012.4 1001.4
21 11.08 В 3 20 км 8/0
[Ac trans]
+19.1 +12.8 67 +20 +20 1010.9 1000.0
00 12.08 В 1 20 км ясно +14.8 +12.8 88 +15 +15 1013.9 1002.9 +8.9 +21.5
03 12.08 В 2 20 км ясно +14.3 +12.5 89 +14 +14 1014.7 1003.8
06 12.08 Ю 1 20 км ясно +11.4 +10.8 96 +12 +12 1013.8 1002.9
09 12.08 Ю 4 20 км 8/0
[Ac trans]
+12.9 +11.8 93 +11 +11 1013.6 1002.6
12 12.08 Ю 2 3000 м дымка 3/0
[Ac trans]
+13.4 +12.3 93 +13 +14 1018.2 1007.2 +10.5 +14.8
15 12.08 Ю 5
{10}
20 км ясно +19.9 +10.6 55 +21 +27 комфорт 1020.6 1009.7
18 12.08 Ю 7
{11}
20 км 1/1 600 м
[Cu hum]
+21.2 +10.3 50 +23 +25 комфорт 1020.2 1009.2
21 12.08 Ю 6
{11}
20 км ясно +19.9 +10.2 54 +21 +21 комфорт 1022.0 1010.9
00 13.08 Ю 2 20 км 5/0
[Cs]
+14.4 +10.0 75 +14 +14 1025.7 1014.5 +13.4 +22.1
03 13.08 ЮЗ 5 20 км ясно +13.0 +6.1 63 +11 +11 1029.1 1018.1
06 13.08 Ю 5 20 км ясно +9.6 +5.5 76 +6 +6 1031.4 1020.2
09 13.08 Ю 3 20 км ясно +7.4 +5.2 86 +4 +4 1032.2 1021.0
12 13.08 Ю 3 20 км ясно +8.2 +5.6 84 +5 +7 1034.5 1023.2 +6.0 +14.4
15 13.08 Ю 5
{10}
20 км ясно +14.3 +3.9 50 +13 +19 1035.1 1023.8
18 13.08 Ю 5
{9}
20 км ясно +16.4 +2.3 39 +16 +21 1033.4 1022.1
21 13.08 ЮВ 3 20 км ясно +15.6 +2.9 42 +15 +15 1032.7 1021.4
00 14.08 Ю 2 20 км ясно +8.6 +5.3 80 +7 +7 1034.4 1023.0 +8.2 +17.5
03 14.08 Ю 1 20 км ясно +5.1 +2.1 81 +4 +4 1036.0 1024.5
06 14.08 Ю 2 20 км ясно +6.1 +2.7 79 +4 +4 1035.4 1024.0
09 14.08 Ю 2 20 км 3/0
[Ci fib]
+4.2 +1.7 84 +2 +2 1033.9 1022.5
12 14.08 ЮВ 4 8000 м дымка 5/0
[Cs]
+5.2 +2.5 83 +1 +3 1034.4 1022.9 +2.0 +8.6
15 14.08 ЮВ 4 20 км 9/0
[Cs]
+11.8 +0.9 47 +10 +16 1034.2 1022.8
18 14.08 В 3 20 км 9/0
[Cs]
+15.2 +0.7 37 +15 +21 1029.8 1018.5
21 14.08 В 3 20 км 1/0
[Ci]
+15.4 +2.3 41 +15 +15 1026.3 1014.9
00 15.08 В 2 20 км 1/0
[Ci]
+8.2 +4.4 77 +7 +7 1026.4 1014.9 +5.2 +16.4
03 15.08 В 1 20 км 4/0
[Cs]
+6.5 +5.8 95 +6 +6 1025.5 1014.2
06 15.08 штиль 0 20 км ясно +3.8 +2.6 92 +3 +3 1023.3 1012.1
09 15.08 штиль 0 20 км 5/0
[Cs]
+2.3 +1.5 94 +1 +1 1022.4 1011.2
12 15.08 В 2 6000 м дымка 8/0
[Cs]
+6.7 +4.6 86 +5 +7 1023.8 1012.4 +1.6 +8.2
15 15.08 В 3 7000 м дым 6/0
[Cs]
+18.2 +5.1 42 +18 +27 1022.5 1011.3
18 15.08 СВ 3 6000 м дым 6/0
[Cs]
+23.1 +7.6 37 +24 +31 комфорт 1018.6 1007.6
21 15.08 В 2 6000 м дым 8/0
[Cs]
+23.0 +10.2 44 +25 +25 комфорт 1017.0 1006.0
00 16.08 В 1 6000 м дым 8/0
[Cs]
+15.6 +11.2 75 +16 +16 1018.1 1006.9 +6.7 +24.5
03 16.08 В 1 20 км 6/0
[Cs]
+14.8 +12.3 85 +15 +15 1017.0 1006.1
06 16.08 штиль 0 20 км 9/0
[Cs]
+13.3 +11.8 91 +13 +13 1015.9 1005.0
09 16.08 ЮВ 1 20 км 6/0
[Cs]
+11.3 +10.7 96 +12 +12 1014.1 1003.2
12 16.08 ЮВ 2 4000 м дымка туман 8/0
[Cs]
+15.2 +13.2 88 +15 +17 1015.4 1004.4 +10.0 +16.6
15 16.08 С 8 5000 м мгла 5/0
[Cs]
+28.0 +15.8 47 +31 +33 душно 1013.4 1002.6
18 16.08 С 9
{14}
5000 м мгла 8/0
[Cs]
+31.7 +15.1 37 +34 +35 душно 1009.5 998.6
21 16.08 СВ 6
{11}
5000 м мгла 8/0
[Cs]
+30.5 +15.3 40 +33 +33 душно 1007.4 996.8
00 17.08 В 3 6000 м дым 5/0
[Cs]
+23.4 +16.3 64 +28 +28 душно 1008.4 997.7 +15.2 +32.6
03 17.08 В 2 20 км ясно +20.5 +16.4 77 +24 +24 комфорт 1008.1 997.6
06 17.08 В 3 20 км ясно +19.6 +16.5 82 +22 +22 комфорт 1006.3 995.8
09 17.08 В 2 20 км ясно +17.1 +14.2 83 +17 +17 1006.3 995.7
12 17.08 В 5 5000 м мгла 8/0
[Cs]
+18.9 +14.1 74 +20 +21 1007.5 996.8 +15.9 +23.4
15 17.08 С 7
{11}
5000 м мгла 8/0
[Cs]
+28.3 +13.9 41 +30 +33 жарко 1006.6 996.1
18 17.08 З 4
{9}
5000 м мгла 9/0
[As trans Cs]
+31.2 +14.6 37 +33 +37 жарко 1005.3 994.8 507
21 17.08 ЮЗ 2 5000 м мгла 10/0
[Ac As]
+26.8 +17.4 56 +31 +31 душно 1006.7 996.1
00 18.08 Ю 4 6000 м мгла 9/0
[Ac As]
+22.8 +15.9 65 +27 +27 душно 1008.9 998.2 +18.9 +31.5
03 18.08 ЮЗ 5 20 км 9/0
[As trans]
+19.9 +16.1 79 +22 +22 комфорт 1012.2 1001.6
06 18.08 Ю 5 20 км 9/0
[As trans]
+18.8 +16.8 88 +20 +20 1012.5 1002.0
09 18.08 Ю 4 20 км 6/0
[As trans]
+15.6 +12.4 81 +15 +15 1013.0 1002.2

 

Местоположение метеостанции Пресиденсиа-Роке-Саэнс-Пенья (Аргентина): широта -26.73 долгота -60.48 высота над уровнем моря 93 м.

В архиве по умолчанию представлена погода в Пресиденсиа-Роке-Саэнс-Пеньи за последнюю неделю. Архивные данные за месяц целиком и за предыдущие месяцы, начиная с января 2011 года, Вы можете получить, выбрав интересующий диапазон дат из раскрывающегося списка и нажав кнопку "Ввод!".


*Определитесь, кто Вы:
робот инопланетянин человек

Внимание! Время в таблицах - всемирное. Для получения местного времени необходимо прибавить поправку, которая равна -3 ч.

Смотрите также архив погоды в соседних городах и на ближайших метеорологических станциях:

Погода в Ресистенсии (Аргентина) (163 км)
Погода в Корриентесе (Аргентина) (188 км)
Погода в Пиларе (Парагвай) (216 км)
Погода в Лас-Ломитасе (Аргентина) (226 км)
Погода в Формосе (Аргентина) (232 км)
Погода в Грал Бругуез (Парагвай) (274 км)
Погода в Реконкисте (Аргентина) (283 км)
Погода в Сан Хуан Батистута (Парагвай) (331 км)
Погода в Асунсьоне (Парагвай) (339 км)
Погода в Куйкуйо (Парагвай) (353 км)

Пояснения к столбцам:

Ветер - указаны скорость ветра в м/с - средняя за 10 мин, порывы в срок и между сроками (в фигурных скобках) и направление, откуда дует ветер: С - северный, СВ - северо-восточный, В - восточный, ЮВ - юго-восточный, Ю - южный, ЮЗ - юго-западный, З - западный, СЗ - северо-западный.
Видимость - горизонтальная дальность видимости в метрах или километрах. При видимости от 1 до 10 км при отсутствии осадков обычно наблюдается дымка, при ухудшении видимости до 1 км и менее - туман. В сухую погоду видимость может ухудшаться дымом, пылью или мглою.
Явления - указаны атмосферные явления, наблюдавшиеся в срок или в последний час перед сроком; фигурными скобками обозначены явления, наблюдавшиеся между сроками (за 1-3 часа до срока); квадратными скобками обозначены град или гололедные отложения с указанием их диаметра в мм.
Облачность - указаны через наклонную черту общая и нижняя облачность в баллах и высота нижней границы облаков в метрах; квадратными скобками обозначены формы облаков: Ci - перистые, Cs - перисто-слоистые, Cc - перисто-кучевые, Ac - высококучевые, As - высокослоистые, Sc - слоисто-кучевые, Ns - слоисто-дождевые, Cu - кучевые, Cb - кучево-дождевые. Подробнее классификацию облаков см. в Атласе облаков (PDF).
T - Температура воздуха - температура, измеренная на высоте 2 м над землей.
Td - Температура точки росы - температура, при понижении до которой содержащийся в воздухе водяной пар достигнет насыщения.
f - Относительная влажность воздуха - влажноcть воздуха, измеренная на высоте 2 м над землей.
Te - Эффективная температура - температура, которую ощущает одетый по сезону человек в тени. Характеристика душности погоды. При расчете учитывается влияние влажности воздуха и скорости ветра на теплоощущения человека.
Tes - Эффективная температура на солнце - температура, которую ощущает человек, с поправкой на солнечный нагрев. Характеристика знойности погоды. Зависит от высоты солнца над горизонтом, облачности и скорости ветра. Ночью, в пасмурную погоду, а также при ветре 12 м/с и более поправка равна нулю.
P - Атмосферное давление - приведенное к уровню моря атмосферное давление.
Po - Атмосферное давление - измеренное на уровне метеостанции атмосферное давление.
Tmin - Минимальная температура - минимум температуры воздуха на высоте 2 м над землей.
Tmax - Максимальная температура - максимум температуры воздуха на высоте 2 м над землей.
R - Количество осадков - Количество выпавших осадков за период времени, мм. При наведении курсора мыши на число - период времени, за который выпало указанное количество осадков.
R24 - Количество осадков - Количество выпавших осадков за 24 часа, мм.
S - Снежный покров - Высота снежного покрова, см. При наведении курсора мыши на число - состояние снежного покрова и степень покрытия местности в баллах.